Weather History for Cleveland, OH

Change the Weather History Date:

Tuesday, November 12, 2013

  Actual Average Record
Temperature  
Mean Temperature 34 °F 45 °F  
Max Temperature 36 °F 53 °F 74 °F (1949)
Min Temperature 31 °F 38 °F 18 °F (1911)
Degree Days  
Heating Degree Days 31 20  
Month to date heating degree days 240 214  
Since 1 July heating degree days 651 674  
Cooling Degree Days 0 0  
Month to date cooling degree days 0 0  
Year to date cooling degree days 889 816  
Moisture  
Dew Point 22 °F    
Average Humidity 68    
Maximum Humidity 85    
Minimum Humidity 51    
Precipitation  
Precipitation 0.07 in 0.12 in 1.65 in (1992)
Month to date precipitation 1.72 1.41  
Year to date precipitation 36.59 33.83  
Snow  
Snow 0.70 in 0.20 in - ()
Month to date snowfall 3.1 1.1  
Since 1 July snowfall 3.1 1.3  
Since 1 September snowfall 3.1 1.3  
Snow Depth 2.00 in    
Sea Level Pressure  
Sea Level Pressure 30.43 in    
Wind  
Wind Speed 14 mph (NNW)    
Max Wind Speed 23 mph    
Max Gust Speed 29 mph    
Visibility 8 miles    
Events Snow    
T = Trace of Precipitation, MM = Missing Value Source: NWS Daily Summary

Daily Weather History Graph

Daily Weather History Graph

Search for Another Location

Airport:

Trip Planner

Search our weather history database for the weather conditions in past years. The results will help you decide how hot, cold, wet, or windy it might be!

Date:

Astronomy

Nov. 12, 2013 Rise Set
Actual Time 7:12 AM EST 5:10 PM EST
Civil Twilight 6:43 AM EST 5:39 PM EST
Nautical Twilight 6:09 AM EST 6:12 PM EST
Astronomical Twilight 5:37 AM EST 6:45 PM EST
Moon 2:26 PM EST (11/12) 1:57 AM EST (11/12)
Length of Visible Light 10h 56m
Length of Day
9h 57m
Waxing Gibbous, 76% of the Moon is Illuminated
Nov 12
Waxing Gibbous
Nov 17
Full
Nov 25
Last Quarter
Dec 2
New
Dec 9
First Quarter

Hourly Weather History & Observations

Time (EST) Temp. Windchill Dew Point Humidity Pressure Visibility Wind Dir Wind Speed Gust Speed Precip Events Conditions
12:08 AM 30.9 °F 20.2 °F 27.0 °F 85% 30.25 in 1.2 mi NNW 15.0 mph - 0.01 in Snow Light Snow
12:29 AM 30.9 °F 23.5 °F 28.0 °F 89% 30.26 in 0.8 mi NNW 8.1 mph - 0.03 in Snow Light Snow
12:34 AM 30.9 °F 24.3 °F 28.0 °F 89% 30.26 in 1.0 mi NNW 6.9 mph - 0.04 in Snow Light Snow
12:44 AM 30.9 °F 24.3 °F 28.0 °F 89% 30.25 in 3.0 mi NNW 6.9 mph - 0.04 in Snow Light Snow
12:51 AM 32.0 °F 24.2 °F 27.0 °F 82% 30.27 in 9.0 mi NNW 9.2 mph - 0.04 in Snow Light Snow
1:51 AM 33.1 °F 23.0 °F 23.0 °F 66% 30.28 in 10.0 mi NNW 15.0 mph - 0.00 in   Overcast
2:51 AM 32.0 °F 22.1 °F 21.9 °F 66% 30.31 in 9.0 mi NNW 13.8 mph - 0.00 in Snow Light Snow
3:51 AM 32.0 °F 21.6 °F 21.9 °F 66% 30.32 in 9.0 mi NNW 15.0 mph - 0.00 in Snow Light Snow
4:51 AM 32.0 °F 22.1 °F 19.9 °F 61% 30.35 in 10.0 mi NNW 13.8 mph - 0.00 in   Overcast
5:51 AM 32.0 °F 20.8 °F 19.0 °F 59% 30.37 in 10.0 mi NW 17.3 mph 21.9 mph N/A   Overcast
6:51 AM 32.0 °F 21.2 °F 21.9 °F 66% 30.40 in 9.0 mi North 16.1 mph - 0.00 in Snow Light Snow
7:51 AM 32.0 °F 21.2 °F 23.0 °F 69% 30.43 in 9.0 mi North 16.1 mph 25.3 mph 0.00 in   Overcast
8:51 AM 33.1 °F 22.2 °F 23.0 °F 66% 30.46 in 9.0 mi North 17.3 mph - 0.00 in Snow Light Snow
9:51 AM 33.1 °F 24.9 °F 24.1 °F 70% 30.47 in 9.0 mi NNW 10.4 mph 20.7 mph 0.00 in Snow Light Snow
10:51 AM 34.0 °F 25.5 °F 24.1 °F 67% 30.49 in 3.0 mi North 11.5 mph - 0.00 in Snow Light Snow
11:48 AM 33.8 °F 25.8 °F 24.8 °F 70% 30.46 in 2.0 mi NNE 10.4 mph - 0.02 in Snow Light Snow
11:49 AM 33.1 °F 25.5 °F 25.0 °F 72% 30.49 in 2.0 mi NNE 9.2 mph - 0.03 in Snow Light Snow
11:57 AM 33.1 °F 26.1 °F 25.0 °F 72% 30.46 in 4.0 mi NNW 8.1 mph - 0.00 in Snow Light Snow
12:21 PM 34.0 °F 24.2 °F 25.0 °F 70% 30.46 in 8.0 mi NNW 15.0 mph - 0.00 in Snow Light Snow
12:51 PM 34.0 °F 24.6 °F 24.1 °F 67% 30.49 in 9.0 mi NNW 13.8 mph - 0.00 in Snow Light Snow
1:51 PM 36.0 °F 26.7 °F 23.0 °F 59% 30.49 in 9.0 mi NW 15.0 mph 21.9 mph 0.01 in Snow Light Snow
2:51 PM 35.1 °F 24.5 °F 21.0 °F 57% 30.50 in 9.0 mi WNW 18.4 mph 21.9 mph 0.00 in Snow Light Snow
3:51 PM 34.0 °F 25.0 °F 19.9 °F 56% 30.51 in 10.0 mi West 12.7 mph - 0.00 in   Mostly Cloudy
4:51 PM 34.0 °F 24.2 °F 19.0 °F 54% 30.51 in 10.0 mi NNW 15.0 mph - N/A   Overcast
5:51 PM 33.1 °F 23.0 °F 18.0 °F 54% 30.51 in 10.0 mi WNW 15.0 mph - N/A   Overcast
6:51 PM 33.1 °F 24.9 °F 18.0 °F 54% 30.51 in 9.0 mi WNW 10.4 mph - 0.00 in Snow Light Snow
7:51 PM 34.0 °F 23.8 °F 16.0 °F 48% 30.52 in 9.0 mi NW 16.1 mph - 0.00 in Snow Light Snow
8:51 PM 33.1 °F 23.9 °F 16.0 °F 50% 30.53 in 10.0 mi NW 12.7 mph - 0.00 in   Overcast
9:51 PM 34.0 °F 24.6 °F 17.1 °F 50% 30.53 in 10.0 mi WNW 13.8 mph - N/A   Overcast
10:51 PM 33.1 °F 23.9 °F 18.0 °F 54% 30.53 in 10.0 mi NW 12.7 mph - 0.00 in   Overcast
11:51 PM 33.1 °F 23.9 °F 18.0 °F 54% 30.53 in 9.0 mi NW 12.7 mph - 0.00 in   Mostly Cloudy